[[{"header":{"parameterUnit":"m.s-1","parameterCategory":1,"la1":30.2991,"la2":30.254,"lo1":-89.0895,"lo2":-89.0444,"dy":0.0017,"dx":0.0017,"nx":28,"ny":28,"refTime":"2024-05-28T09:00:00:Z","depth":0,"parameterNumber":2,"parameterNumberName":"U-component_of_WINDS"},"data":[0,0,0,0,0,0,0,0,0,0,0,0,0,0,0,0,0,0,0,0,0,0,0,0,0,0,0,0,0,0,0,0,0,0,0,0,0,0,0,0,0,0,0,0,0,0,0,0,0,0,0,0,0,0,0,0,0,0,0.0172,0.0174,0,0.0345,0.0347,0.0349,0.042,0.042,0.0419,0.0419,0.0599,0.0604,0.0609,0,0,0,0,0,0,0,0,0,0,0,0,0,-0.0097,-0.0093,0.0172,0.0174,0.0176,0.0345,0.0347,0.035,0.042,0.042,0.0419,0.0419,0.0597,0.0603,0.0609,0,0,0,0,0,0,0,0,0,0,0,0,0,0.0042,-0.0091,0.0172,0.0232,0.0239,0.0345,0.0348,0.0351,0.042,0.042,0.0419,0.0419,0.0595,0.0603,0.061,0.067,0,0,0.0634,0.0637,0,0,0,0,0,0,0,0,0.0034,0.0052,0.0221,0.0228,0.0236,0.0361,0.0319,0.0458,0.0421,0.0352,0.0419,0.0418,0.052,0.0534,0.0568,0.0678,0.0686,0.0634,0.0639,0.0642,0.0645,0,0,0,0,0,0,0,0.0024,0.0045,0.0241,0.0223,0.0232,0.025,0.0269,0.0345,0.0437,0.0358,0.0363,0.0382,0.0524,0.056,0.0573,0.0688,0.0634,0.0641,0.0646,0.0649,0.0854,0.0855,0,0,0,0,0,0,0.0005,0.0036,0.0235,0.0246,0.0132,0.0256,0.0277,0.0321,0.0436,0.0453,0.0383,0.0385,0.0547,0.0563,0.0579,0.0656,0.0642,0.065,0.0654,0.0854,0.0855,0.0856,0,0,0,0,0,0,-0.0001,0.0022,0.0228,0.0143,0.017,0.0261,0.031,0.0325,0.0361,0.0456,0.0472,0.0403,0.0548,0.0568,0.0646,0.0663,0.0653,0.066,0.0853,0.0854,0.0855,0.0809,0,0,0,0,0,0,-0.0009,0.0019,0.0043,0.0143,0.0175,0.0292,0.0311,0.0329,0.0374,0.0379,0.0479,0.0495,0.0549,0.0634,0.0654,0.0673,0.0666,0.0852,0.0853,0.0855,0.0809,0.0809,0.0808,0,0,0,0,0,-0.0019,0.0024,0.0044,0.0067,0.0206,0.0293,0.0311,0.0372,0.0375,0.0399,0.046,0.0492,0.0657,0.0642,0.0664,0.0686,0.0851,0.0853,0.0855,0.081,0.0809,0.0808,0,0,0,0,0,0,-0.0075,0.0038,0.0061,0.0138,0.0205,0.0305,0.0337,0.0369,0.0437,0.0439,0.0511,0.0533,0.0605,0.0654,0.0634,0.0749,0.0757,0.0763,0.0715,0.0715,0.0714,0.0701,0.0673,0,0,0,0,0,-0.0079,-0.0019,0.0077,0.0136,0.0168,0.0246,0.0287,0.0327,0.04,0.0429,0.0495,0.0565,0.0633,0.0677,0.0744,0.0816,0.0839,0.0843,0.0842,0.084,0.0845,0.0886,0.0889,0.0862,0.0862,0.0862,0,0,-0.0086,-0.0017,0.0018,0.0126,0.0183,0.0244,0.027,0.0334,0.038,0.0439,0.0516,0.0567,0.065,0.0724,0.0761,0.0767,0.0858,0.0843,0.0841,0.0847,0.0888,0.0891,0.0893,0.0863,0.0863,0.0862,0,0,-0.0067,-0.0008,0.0046,0.0102,0.0187,0.0239,0.0252,0.0346,0.0382,0.046,0.0505,0.0561,0.0677,0.0733,0.0777,0.0815,0.0847,0.0835,0.0831,0.087,0.0872,0.0874,0.0887,0.0891,0.084,0.084,0.084,0,-0.0085,0.0008,0.007,0.0132,0.0178,0.0232,0.0287,0.0339,0.0442,0.0472,0.0478,0.0623,0.0682,0.0771,0.0779,0.0813,0.083,0.0825,0.0866,0.0869,0.0872,0.0886,0.089,0.0838,0.0838,0.0838,0.0838,0,-0.0019,0.0045,0.0078,0.0175,0.0225,0.0283,0.0354,0.0396,0.0432,0.0483,0.0561,0.0634,0.0717,0.0741,0.0777,0.0834,0.0835,0.0852,0.0861,0.0872,0.0885,0.0891,0.0835,0.0835,0.0836,0.0837,0,0,-0.0029,0.01,0.0111,0.0155,0.0252,0.0303,0.0362,0.0442,0.0477,0.0546,0.0598,0.0693,0.0709,0.0759,0.0802,0.0836,0.086,0.0849,0.0852,0.0848,0.0926,0.0913,0.0918,0.0881,0.0882,0.0883,0.0919,0,0.0003,0.0112,0.0169,0.0254,0.0313,0.0365,0.0417,0.0482,0.053,0.0588,0.0642,0.0708,0.0725,0.0755,0.079,0.0849,0.0877,0.0847,0.093,0.0932,0.0908,0.0925,0.0912,0.0942,0.0925,0.0926,0.0927,0,0.0056,0.0122,0.0212,0.0301,0.0328,0.0374,0.0451,0.0505,0.058,0.0612,0.0666,0.0708,0.0773,0.0776,0.0866,0.0844,0.0881,0.0915,0.0918,0.0928,0.0931,0.0936,0.0954,0.0958,0.0936,0.0935,0.0935,0,0.0039,0.0151,0.0219,0.0255,0.0361,0.0391,0.0437,0.051,0.0554,0.0621,0.065,0.0724,0.0765,0.0821,0.0881,0.0878,0.0965,0.0974,0.0994,0.0993,0.1011,0.1009,0.1035,0.1034,0.1034,0.1034,0.1034,0,0.0069,0.0122,0.0213,0.0255,0.0316,0.038,0.0439,0.0488,0.0553,0.0605,0.0654,0.0702,0.0779,0.0836,0.0883,0.095,0.0968,0.0997,0.1009,0.0993,0.0989,0.1019,0.1018,0.1035,0.1035,0.1035,0.1034,0,0.0061,0.0124,0.0202,0.0294,0.0318,0.0359,0.0438,0.0481,0.0531,0.0596,0.0616,0.0695,0.0765,0.083,0.0924,0.0955,0.1023,0.1038,0.0997,0.1004,0.1021,0.1018,0.1067,0.1076,0.1068,0.1068,0.1068,0,0.0076,0.0118,0.0214,0.0252,0.0296,0.0357,0.0402,0.0466,0.051,0.0597,0.0629,0.0702,0.0765,0.0874,0.094,0.1012,0.1029,0.1041,0.1041,0.1022,0.1029,0.1026,0.1031,0.104,0.104,0.104,0.104,0,0.0096,0.0125,0.0187,0.0259,0.031,0.0371,0.0433,0.0461,0.0537,0.0584,0.0656,0.0704,0.0799,0.0871,0.095,0.0997,0.1031,0.1039,0.1048,0.1032,0.1006,0.102,0.0995,0.1038,0.1038,0.1038,0.1038,0.1038,0.01,0.0139,0.0213,0.028,0.0333,0.0389,0.0433,0.0488,0.0549,0.063,0.0664,0.0737,0.0809,0.0918,0.0964,0.1022,0.1029,0.1042,0.1045,0.1047,0.1044,0.0996,0.1036,0.1036,0.1037,0.1037,0.1037,0,0.0123,0.0172,0.0233,0.0317,0.0369,0.0396,0.0465,0.0507,0.057,0.0634,0.0694,0.0775,0.0845,0.0915,0.0989,0.1021,0.1039,0.1039,0.1037,0.1047,0.1033,0.1018,0.1023,0.1023,0.1023,0.1023,0.1023,0.1023,0.0141,0.0208,0.0245,0.0338,0.0388,0.0458,0.0496,0.0548,0.0599,0.0687,0.0745,0.079,0.0857,0.0935,0.1,0.1019,0.1044,0.1039,0.1062,0.1048,0.1048,0.1049,0.1035,0.1044,0.1044,0.1072,0.1072,0.1072]},{"header":{"parameterUnit":"m.s-1","parameterCategory":1,"la1":30.2991,"la2":30.254,"lo1":-89.0895,"lo2":-89.0444,"dy":0.0017,"dx":0.0017,"nx":28,"ny":28,"refTime":"2024-05-28T09:00:00:Z","depth":0,"parameterNumber":3,"parameterNumberName":"V-component_of_WINDS"},"data":[0,0,0,0,0,0,0,0,0,0,0,0,0,0,0,0,0,0,0,0,0,0,0,0,0,0,0,0,0,0,0,0,0,0,0,0,0,0,0,0,0,0,0,0,0,0,0,0,0,0,0,0,0,0,0,0,0,0,2.6827,2.6827,0,2.6794,2.6794,2.6794,2.678,2.678,2.678,2.678,2.6742,2.6741,2.674,0,0,0,0,0,0,0,0,0,0,0,0,0,2.6874,2.6873,2.6827,2.6827,2.6827,2.6794,2.6794,2.6794,2.678,2.678,2.678,2.678,2.6742,2.6741,2.674,0,0,0,0,0,0,0,0,0,0,0,0,0,2.6849,2.6873,2.6828,2.6816,2.6815,2.6795,2.6794,2.6793,2.678,2.678,2.678,2.678,2.6743,2.6741,2.6739,2.6727,0,0,2.6734,2.6734,0,0,0,0,0,0,0,0,2.685,2.6847,2.6818,2.6817,2.6815,2.6791,2.6796,2.6771,2.678,2.6793,2.678,2.678,2.6758,2.6755,2.6748,2.6725,2.6724,2.6734,2.6733,2.6733,2.6732,0,0,0,0,0,0,0,2.6852,2.6848,2.6814,2.6818,2.6816,2.6811,2.6807,2.6792,2.6775,2.6792,2.6791,2.6787,2.6757,2.675,2.6747,2.6723,2.6734,2.6733,2.6732,2.6731,2.6686,2.6686,0,0,0,0,0,0,2.6856,2.685,2.6815,2.6813,2.6833,2.681,2.6806,2.6799,2.6775,2.6772,2.6787,2.6787,2.6753,2.6749,2.6746,2.6729,2.6733,2.6731,2.673,2.6687,2.6686,2.6686,0,0,0,0,0,0,2.6857,2.6853,2.6817,2.6831,2.6826,2.6809,2.6801,2.6798,2.6791,2.6772,2.6768,2.6783,2.6753,2.6748,2.6732,2.6728,2.673,2.6729,2.6687,2.6686,2.6686,2.6696,0,0,0,0,0,0,2.6859,2.6854,2.685,2.6831,2.6826,2.6804,2.6801,2.6797,2.6789,2.6788,2.6767,2.6764,2.6753,2.6734,2.673,2.6726,2.6728,2.6687,2.6687,2.6686,2.6696,2.6696,2.6696,0,0,0,0,0,2.686,2.6853,2.685,2.6846,2.6821,2.6804,2.6801,2.6789,2.6789,2.6784,2.6771,2.6764,2.6729,2.6733,2.6728,2.6723,2.6687,2.6687,2.6686,2.6696,2.6696,2.6696,0,0,0,0,0,0,2.6871,2.6851,2.6847,2.6834,2.6821,2.6802,2.6796,2.679,2.6776,2.6776,2.676,2.6756,2.674,2.673,2.6734,2.6709,2.6707,2.6706,2.6716,2.6716,2.6716,2.6719,2.6726,0,0,0,0,0,2.6872,2.6862,2.6844,2.6834,2.6828,2.6813,2.6806,2.6798,2.6783,2.6777,2.6764,2.6749,2.6734,2.6724,2.671,2.6694,2.6689,2.6688,2.6688,2.6688,2.6687,2.6677,2.6676,2.6684,2.6684,2.6684,0,0,2.6873,2.6861,2.6855,2.6836,2.6825,2.6813,2.6809,2.6797,2.6787,2.6775,2.6759,2.6748,2.673,2.6714,2.6706,2.6705,2.6684,2.6688,2.6688,2.6687,2.6676,2.6675,2.6675,2.6684,2.6684,2.6684,0,0,2.687,2.6861,2.6851,2.684,2.6824,2.6814,2.6812,2.6794,2.6787,2.6771,2.6761,2.6749,2.6724,2.6711,2.6702,2.6693,2.6686,2.6688,2.6689,2.6679,2.6678,2.6677,2.6673,2.6672,2.6687,2.6687,2.6687,0,2.6874,2.6857,2.6846,2.6835,2.6826,2.6816,2.6805,2.6795,2.6774,2.6768,2.6767,2.6735,2.6722,2.6702,2.67,2.6693,2.6689,2.6691,2.6679,2.6679,2.6678,2.6674,2.6672,2.6688,2.6688,2.6688,2.6688,0,2.6862,2.6851,2.6844,2.6826,2.6817,2.6806,2.6791,2.6783,2.6775,2.6765,2.6748,2.6732,2.6714,2.6708,2.6701,2.6687,2.6686,2.6683,2.6681,2.6678,2.6673,2.6672,2.6688,2.6688,2.6688,2.6688,0,0,2.6865,2.6841,2.6839,2.683,2.6811,2.6801,2.6789,2.6772,2.6765,2.675,2.6739,2.6718,2.6714,2.6703,2.6694,2.6685,2.6678,2.6682,2.6681,2.6681,2.666,2.6663,2.6661,2.6673,2.6673,2.6672,2.6661,0,2.6859,2.6838,2.6828,2.6811,2.6799,2.6788,2.6777,2.6764,2.6753,2.6741,2.6728,2.6714,2.671,2.6703,2.6695,2.6681,2.6673,2.6681,2.666,2.666,2.6665,2.6659,2.6662,2.6652,2.666,2.6659,2.6659,0,2.6849,2.6837,2.6819,2.6801,2.6795,2.6786,2.6769,2.6758,2.6741,2.6734,2.6722,2.6713,2.6697,2.6697,2.6674,2.668,2.6671,2.6662,2.6662,2.6659,2.6659,2.6655,2.6649,2.6647,2.6657,2.6657,2.6657,0,2.6852,2.6831,2.6817,2.681,2.6789,2.6782,2.6772,2.6756,2.6747,2.6731,2.6725,2.6707,2.6698,2.6684,2.6669,2.667,2.6648,2.6646,2.664,2.664,2.6635,2.6636,2.6627,2.663,2.663,2.663,2.663,0,2.6847,2.6836,2.6818,2.681,2.6797,2.6784,2.6771,2.676,2.6746,2.6734,2.6723,2.6711,2.6694,2.6679,2.6668,2.665,2.6646,2.6638,2.6635,2.6639,2.664,2.6632,2.6632,2.663,2.663,2.663,2.663,0,2.6848,2.6836,2.682,2.6801,2.6796,2.6787,2.677,2.6761,2.675,2.6734,2.673,2.6712,2.6695,2.6679,2.6656,2.6648,2.6629,2.6626,2.6635,2.6634,2.6628,2.6628,2.6613,2.661,2.6616,2.6616,2.6616,0,2.6845,2.6837,2.6817,2.6809,2.68,2.6787,2.6777,2.6764,2.6753,2.6734,2.6726,2.6708,2.6693,2.6665,2.6649,2.663,2.6626,2.6622,2.6623,2.6627,2.6625,2.6625,2.6623,2.6622,2.6622,2.6622,2.6622,0,2.6841,2.6835,2.6822,2.6807,2.6796,2.6783,2.6769,2.6763,2.6746,2.6735,2.6718,2.6706,2.6682,2.6664,2.6644,2.6632,2.6623,2.6622,2.6619,2.6622,2.6628,2.6624,2.6635,2.6622,2.6622,2.6622,2.6622,2.6622,2.6839,2.6831,2.6816,2.6802,2.679,2.6778,2.6767,2.6755,2.6741,2.6722,2.6714,2.6696,2.6678,2.665,2.6638,2.6622,2.6621,2.6617,2.6616,2.6615,2.6616,2.6631,2.6619,2.6619,2.6619,2.6619,2.6619,0,2.6834,2.6824,2.6811,2.6792,2.6781,2.6775,2.676,2.675,2.6734,2.6719,2.6705,2.6684,2.6666,2.6648,2.6628,2.6619,2.6615,2.6614,2.6615,2.6612,2.6619,2.6623,2.6618,2.6618,2.6618,2.6618,2.6618,2.6618,2.683,2.6815,2.6807,2.6786,2.6775,2.6759,2.675,2.6738,2.6726,2.6704,2.6689,2.6678,2.6661,2.664,2.6622,2.6617,2.661,2.6611,2.6604,2.6611,2.6611,2.6612,2.6615,2.6609,2.6609,2.6599,2.6599,2.6598]}]]